Portada
METAR-TAF:

METAR-TAF

Aeropuertos :

Jasper, Georgia, Estados Unidos

latitud: 34-27-12N, longitud: 084-27-26W, altitud: 468 m

Observación

El informe se hizo hace 26 minutos, a las 06:35 UTC
Viento 6 kt del norte-noreste con ráfagas de 15 kt
Temperatura 0°C
Humedad 86%
Presión 1028 hPa
Visibilidad: 16.1 km
Nubes dispersas a una altura de 2600 ft

METAR: KJZP 210635Z AUTO 03006G15KT 10SM SCT026 00/M02 A3036 RMK AO2 T00031025

Hora: 02:01 (07:01 UTC)


TAF: falta

Observaciones y pronósticos meteorológicos de más de 4000 aeropuertos (mensajes METAR y TAF).

Los puntos amarillos y rojos representan las estaciones disponibles.

Ponga el ratón en el punto deseado para ver el nombre de la estación.

Haga clic para ver las observaciones y los pronósticos meteorológicos.

Para cambiar el mapa : haga clic en los botones verdes con una cruz de color negro para hacer un zoom, en el botón verde con un guión para alejar o en las flechas verdes para mapas adyacentes.


METAR-TAF: